| time (UTC) | temp C | wind direction | speed KPH | gust KPH | rain 1hr cm | rain 24hr cm | rain mn cm | humidity % | barometer mb |
| 20260905140906 | 14 | 325 | 3.2 | 12.9 | 0.00 | 0.00 | 0.00 | 38 | 1017.1 |
| 20260905135906 | 14 | 312 | 6.4 | 11.3 | 0.00 | 0.00 | 0.00 | 37 | 1017.0 |
| 20260905134906 | 14 | 315 | 4.8 | 12.9 | 0.00 | 0.00 | 0.00 | 36 | 1016.9 |
| 20260905133906 | 13 | 314 | 4.8 | 11.3 | 0.00 | 0.00 | 0.00 | 38 | 1016.8 |
| 20260905132906 | 13 | 319 | 4.8 | 12.9 | 0.00 | 0.00 | 0.00 | 38 | 1016.7 |
| 20260905131906 | 13 | 314 | 8.0 | 16.1 | 0.00 | 0.00 | 0.00 | 38 | 1016.5 |
| 20260905130906 | 13 | 316 | 8.0 | 14.5 | 0.00 | 0.00 | 0.00 | 38 | 1016.5 |
| 20260905125906 | 13 | 310 | 8.0 | 19.3 | 0.00 | 0.00 | 0.00 | 39 | 1016.4 |
| 20260905124906 | 13 | 306 | 9.7 | 17.7 | 0.00 | 0.00 | 0.00 | 38 | 1016.4 |
| 20260905123910 | 13 | 313 | 8.0 | 16.1 | 0.00 | 0.00 | 0.00 | 38 | 1016.3 |
| 20260905122906 | 13 | 313 | 9.7 | 14.5 | 0.00 | 0.00 | 0.00 | 38 | 1016.3 |
| 20260905121906 | 13 | 306 | 9.7 | 17.7 | 0.00 | 0.00 | 0.00 | 45 | 1016.3 |
| 20260905120906 | 13 | 312 | 11.3 | 16.1 | 0.00 | 0.00 | 0.00 | 47 | 1016.3 |
| 20260905115906 | 13 | 307 | 11.3 | 17.7 | 0.00 | 0.00 | 0.00 | 44 | 1016.3 |
| 20260905114906 | 13 | 309 | 11.3 | 19.3 | 0.00 | 0.00 | 0.00 | 46 | 1016.3 |
| 20260905113906 | 13 | 305 | 12.9 | 19.3 | 0.00 | 0.00 | 0.00 | 47 | 1016.2 |
| 20260905112906 | 13 | 308 | 14.5 | 19.3 | 0.00 | 0.00 | 0.00 | 48 | 1016.2 |
| 20260905111907 | 13 | 306 | 12.9 | 19.3 | 0.00 | 0.00 | 0.00 | 49 | 1016.2 |
| 20260905110409 | 13 | 309 | 12.9 | 20.9 | 0.00 | 0.00 | 0.00 | 45 | 1016.3 |
| 20260905105407 | 13 | 306 | 12.9 | 20.9 | 0.00 | 0.00 | 0.00 | 45 | 1016.3 |
| 20260905104408 | 13 | 304 | 14.5 | 22.5 | 0.00 | 0.00 | 0.00 | 46 | 1016.3 |
| 20260905103408 | 13 | 303 | 16.1 | 22.5 | 0.00 | 0.00 | 0.00 | 48 | 1016.2 |
| 20260905102408 | 13 | 308 | 14.5 | 20.9 | 0.00 | 0.00 | 0.00 | 50 | 1016.3 |
| 20260905101412 | 13 | 308 | 14.5 | 22.5 | 0.00 | 0.00 | 0.00 | 52 | 1016.3 |
| 20260905100407 | 13 | 307 | 12.9 | 19.3 | 0.00 | 0.00 | 0.00 | 53 | 1016.3 |
| 20260905095407 | 13 | 311 | 12.9 | 19.3 | 0.00 | 0.00 | 0.00 | 53 | 1016.3 |
| 20260905094407 | 13 | 316 | 11.3 | 17.7 | 0.00 | 0.00 | 0.00 | 54 | 1016.2 |
| 20260905093413 | 13 | 312 | 14.5 | 19.3 | 0.00 | 0.00 | 0.00 | 55 | 1016.2 |
| 20260905092407 | 13 | 310 | 12.9 | 20.9 | 0.00 | 0.00 | 0.00 | 54 | 1016.3 |
| 20260905091410 | 13 | 312 | 14.5 | 22.5 | 0.00 | 0.00 | 0.00 | 54 | 1016.3 |
| 20260905090411 | 13 | 311 | 14.5 | 22.5 | 0.00 | 0.00 | 0.00 | 54 | 1016.3 |
| 20260905085407 | 13 | 310 | 12.9 | 24.1 | 0.00 | 0.00 | 0.00 | 54 | 1016.3 |
| 20260905084407 | 13 | 305 | 14.5 | 25.7 | 0.00 | 0.00 | 0.00 | 53 | 1016.3 |
| 20260905083407 | 13 | 310 | 16.1 | 22.5 | 0.00 | 0.00 | 0.00 | 53 | 1016.4 |
| 20260905082407 | 13 | 305 | 14.5 | 25.7 | 0.00 | 0.00 | 0.00 | 53 | 1016.5 |
| 20260905081408 | 13 | 302 | 12.9 | 24.1 | 0.00 | 0.00 | 0.00 | 52 | 1016.5 |
| 20260905080407 | 13 | 307 | 12.9 | 19.3 | 0.00 | 0.00 | 0.00 | 52 | 1016.6 |
| 20260905075408 | 13 | 304 | 12.9 | 17.7 | 0.00 | 0.00 | 0.00 | 51 | 1016.6 |
| 20260905074410 | 13 | 299 | 12.9 | 19.3 | 0.00 | 0.00 | 0.00 | 51 | 1016.7 |
| 20260905073407 | 13 | 297 | 12.9 | 20.9 | 0.00 | 0.00 | 0.00 | 51 | 1016.7 |
| 20260905072407 | 13 | 285 | 12.9 | 24.1 | 0.00 | 0.00 | 0.00 | 51 | 1016.7 |
| 20260905071407 | 13 | 276 | 14.5 | 20.9 | 0.00 | 0.00 | 0.00 | 52 | 1016.7 |
| 20260905070407 | 13 | 272 | 14.5 | 20.9 | 0.00 | 0.00 | 0.00 | 52 | 1016.7 |
| 20260905065407 | 14 | 271 | 14.5 | 22.5 | 0.00 | 0.10 | 0.00 | 51 | 1016.7 |
| 20260905064407 | 14 | 269 | 16.1 | 22.5 | 0.00 | 0.13 | 0.00 | 51 | 1016.6 |
| 20260905063407 | 14 | 264 | 14.5 | 24.1 | 0.00 | 0.13 | 0.00 | 51 | 1016.6 |
| 20260905062407 | 14 | 259 | 16.1 | 24.1 | 0.00 | 0.13 | 0.00 | 50 | 1016.7 |
| 20260905061407 | 14 | 251 | 14.5 | 24.1 | 0.00 | 0.13 | 0.00 | 49 | 1016.6 |
| 20260905060407 | 14 | 258 | 14.5 | 20.9 | 0.00 | 0.13 | 0.00 | 50 | 1016.6 |
| 20260905055407 | 14 | 263 | 16.1 | 24.1 | 0.00 | 0.13 | 0.00 | 50 | 1016.6 |
| 20260905054407 | 14 | 251 | 12.9 | 19.3 | 0.00 | 0.13 | 0.00 | 50 | 1016.7 |
| 20260905053408 | 14 | 257 | 11.3 | 19.3 | 0.00 | 0.13 | 0.00 | 50 | 1016.7 |
| 20260905052407 | 14 | 255 | 11.3 | 17.7 | 0.00 | 0.13 | 0.00 | 50 | 1016.8 |
| 20260905051407 | 14 | 266 | 12.9 | 20.9 | 0.00 | 0.13 | 0.00 | 49 | 1016.7 |
| 20260905050407 | 14 | 267 | 16.1 | 20.9 | 0.00 | 0.13 | 0.00 | 49 | 1016.7 |
| 20260905045407 | 14 | 270 | 14.5 | 20.9 | 0.00 | 0.13 | 0.00 | 49 | 1016.7 |
| 20260905044407 | 14 | 262 | 14.5 | 19.3 | 0.00 | 0.13 | 0.00 | 50 | 1016.7 |
| 20260905043407 | 14 | 266 | 12.9 | 19.3 | 0.00 | 0.13 | 0.00 | 50 | 1016.7 |
| 20260905042407 | 14 | 268 | 11.3 | 17.7 | 0.00 | 0.13 | 0.00 | 50 | 1016.8 |
| 20260905041407 | 14 | 259 | 9.7 | 17.7 | 0.00 | 0.13 | 0.00 | 51 | 1016.8 |
| 20260905040407 | 14 | 266 | 9.7 | 17.7 | 0.00 | 0.13 | 0.00 | 50 | 1016.8 |
| 20260905035407 | 14 | 259 | 6.4 | 20.9 | 0.00 | 0.13 | 0.00 | 50 | 1016.8 |
| 20260905034407 | 15 | 271 | 11.3 | 20.9 | 0.00 | 0.13 | 0.00 | 50 | 1016.7 |
| 20260905033408 | 15 | 274 | 12.9 | 22.5 | 0.00 | 0.13 | 0.00 | 50 | 1016.4 |
| 20260905032407 | 15 | 274 | 14.5 | 24.1 | 0.00 | 0.13 | 0.00 | 49 | 1016.3 |
| 20260905031407 | 15 | 276 | 17.7 | 24.1 | 0.00 | 0.13 | 0.00 | 49 | 1016.2 |
| 20260905030407 | 15 | 283 | 14.5 | 22.5 | 0.00 | 0.13 | 0.00 | 49 | 1016.1 |
| 20260905025407 | 15 | 280 | 14.5 | 24.1 | 0.00 | 0.13 | 0.00 | 49 | 1015.9 |
| 20260905024407 | 15 | 277 | 16.1 | 22.5 | 0.00 | 0.13 | 0.00 | 49 | 1015.9 |
| 20260905023406 | 15 | 273 | 11.3 | 27.4 | 0.00 | 0.13 | 0.00 | 48 | 1015.8 |
| 20260905022409 | 15 | 272 | 14.5 | 29.0 | 0.00 | 0.13 | 0.00 | 47 | 1015.7 |
| 20260905021408 | 15 | 262 | 14.5 | 27.4 | 0.00 | 0.13 | 0.00 | 47 | 1015.6 |
| 20260905020407 | 15 | 273 | 16.1 | 24.1 | 0.00 | 0.13 | 0.00 | 47 | 1015.6 |
| 20260905015407 | 15 | 287 | 8.0 | 20.9 | 0.00 | 0.13 | 0.00 | 47 | 1015.6 |
| 20260905014407 | 15 | 296 | 1.6 | 20.9 | 0.00 | 0.13 | 0.00 | 47 | 1015.6 |
| 20260905013407 | 15 | 275 | 11.3 | 20.9 | 0.00 | 0.13 | 0.00 | 45 | 1015.6 |
| 20260905012408 | 16 | 284 | 6.4 | 29.0 | 0.00 | 0.13 | 0.00 | 45 | 1015.5 |
| 20260905011407 | 16 | 269 | 6.4 | 20.9 | 0.00 | 0.13 | 0.00 | 44 | 1015.5 |
| 20260905010407 | 16 | 308 | 8.0 | 24.1 | 0.00 | 0.13 | 0.00 | 44 | 1015.5 |
| 20260905005410 | 16 | 296 | 6.4 | 24.1 | 0.00 | 0.13 | 0.00 | 44 | 1015.5 |
| 20260905004408 | 16 | 238 | 1.6 | 29.0 | 0.00 | 0.13 | 0.00 | 44 | 1015.4 |
| 20260905003407 | 16 | 290 | 12.9 | 30.6 | 0.00 | 0.13 | 0.00 | 43 | 1015.4 |
| 20260905002408 | 17 | 281 | 17.7 | 30.6 | 0.00 | 0.13 | 0.00 | 41 | 1015.3 |
| 20260905001407 | 17 | 258 | 11.3 | 25.7 | 0.00 | 0.13 | 0.00 | 42 | 1015.4 |
| 20260905000409 | 16 | 274 | 11.3 | 19.3 | 0.00 | 0.13 | 0.00 | 42 | 1015.4 |
| 20260904235407 | 16 | 282 | 6.4 | 25.7 | 0.00 | 0.13 | 0.00 | 42 | 1015.6 |
| 20260904234407 | 17 | 276 | 14.5 | 27.4 | 0.00 | 0.13 | 0.00 | 42 | 1015.7 |
| 20260904233407 | 17 | 268 | 14.5 | 24.1 | 0.00 | 0.13 | 0.00 | 41 | 1015.6 |
| 20260904232407 | 17 | 263 | 9.7 | 32.2 | 0.00 | 0.13 | 0.00 | 41 | 1015.7 |
| 20260904230909 | 17 | 294 | 12.9 | 20.9 | 0.00 | 0.13 | 0.13 | 38 | 1015.7 |
| 20260904225907 | 17 | 266 | 11.3 | 27.4 | 0.00 | 0.13 | 0.13 | 38 | 1015.8 |
| 20260904224907 | 17 | 255 | 11.3 | 22.5 | 0.00 | 0.13 | 0.13 | 37 | 1015.8 |
| 20260904223908 | 17 | 279 | 11.3 | 24.1 | 0.00 | 0.13 | 0.13 | 38 | 1015.7 |
| 20260904222909 | 17 | 259 | 4.8 | 27.4 | 0.00 | 0.13 | 0.13 | 42 | 1015.8 |
| 20260904221007 | 17 | 265 | 16.1 | 32.2 | 0.00 | 0.13 | 0.13 | 39 | 1015.9 |
| 20260904220006 | 17 | 256 | 11.3 | 20.9 | 0.00 | 0.13 | 0.13 | 44 | 1016.0 |
| 20260904215014 | 17 | 239 | 12.9 | 32.2 | 0.00 | 0.13 | 0.13 | 43 | 1016.1 |
| 20260904214006 | 17 | 222 | 4.8 | 20.9 | 0.00 | 0.13 | 0.13 | 45 | 1016.1 |
| 20260904213007 | 17 | 246 | 12.9 | 38.6 | 0.00 | 0.13 | 0.13 | 38 | 1016.1 |
| 20260904212008 | 16 | 262 | 12.9 | 27.4 | 0.00 | 0.13 | 0.13 | 47 | 1016.2 |
| 20260904211006 | 16 | 258 | 16.1 | 30.6 | 0.00 | 0.13 | 0.13 | 47 | 1016.2 |
| 20260904210006 | 17 | 272 | 12.9 | 24.1 | 0.00 | 0.13 | 0.13 | 48 | 1016.4 |
| 20260904205006 | 16 | 263 | 8.0 | 27.4 | 0.00 | 0.13 | 0.13 | 48 | 1016.5 |
| 20260904204007 | 16 | 260 | 9.7 | 22.5 | 0.00 | 0.13 | 0.13 | 52 | 1016.5 |
| 20260904203006 | 16 | 262 | 8.0 | 25.7 | 0.00 | 0.13 | 0.13 | 50 | 1016.5 |
| 20260904202006 | 16 | 280 | 12.9 | 27.4 | 0.00 | 0.13 | 0.13 | 48 | 1016.6 |
| 20260904201006 | 16 | 254 | 9.7 | 22.5 | 0.00 | 0.13 | 0.13 | 51 | 1016.6 |
| 20260904200006 | 16 | 273 | 8.0 | 20.9 | 0.00 | 0.13 | 0.13 | 53 | 1016.7 |
| 20260904195006 | 16 | 254 | 8.0 | 22.5 | 0.00 | 0.13 | 0.13 | 48 | 1016.8 |
| 20260904194006 | 16 | 275 | 8.0 | 22.5 | 0.00 | 0.13 | 0.13 | 44 | 1016.9 |
| 20260904193008 | 16 | 254 | 9.7 | 24.1 | 0.00 | 0.13 | 0.13 | 40 | 1016.9 |
| 20260904192007 | 16 | 262 | 8.0 | 17.7 | 0.00 | 0.13 | 0.13 | 46 | 1017.1 |
| 20260904191006 | 15 | 250 | 3.2 | 24.1 | 0.00 | 0.13 | 0.13 | 41 | 1017.0 |
| 20260904190007 | 16 | 243 | 8.0 | 22.5 | 0.00 | 0.13 | 0.13 | 55 | 1017.1 |
| 20260904185006 | 16 | 287 | 6.4 | 16.1 | 0.00 | 0.13 | 0.13 | 45 | 1017.2 |
| 20260904184006 | 15 | 254 | 4.8 | 20.9 | 0.00 | 0.13 | 0.13 | 50 | 1017.3 |
| 20260904183006 | 15 | 267 | 6.4 | 19.3 | 0.00 | 0.13 | 0.13 | 60 | 1017.2 |
| 20260904182006 | 15 | 252 | 6.4 | 16.1 | 0.00 | 0.13 | 0.13 | 60 | 1017.3 |
| 20260904181006 | 14 | 277 | 9.7 | 17.7 | 0.00 | 0.13 | 0.13 | 59 | 1017.4 |
| 20260904180008 | 14 | 269 | 6.4 | 17.7 | 0.00 | 0.13 | 0.13 | 65 | 1017.4 |
| 20260904175006 | 14 | 263 | 11.3 | 20.9 | 0.00 | 0.13 | 0.13 | 72 | 1017.5 |
| 20260904174009 | 13 | 242 | 4.8 | 14.5 | 0.00 | 0.13 | 0.13 | 73 | 1017.5 |
| 20260904173006 | 13 | 212 | 6.4 | 17.7 | 0.00 | 0.13 | 0.13 | 75 | 1017.4 |
| 20260904172007 | 12 | 267 | 12.9 | 19.3 | 0.00 | 0.13 | 0.13 | 76 | 1017.4 |
| 20260904171006 | 12 | 262 | 11.3 | 24.1 | 0.00 | 0.13 | 0.13 | 78 | 1017.3 |
| 20260904170006 | 12 | 256 | 8.0 | 19.3 | 0.00 | 0.13 | 0.13 | 78 | 1017.2 |
| 20260904165006 | 12 | 256 | 11.3 | 22.5 | 0.00 | 0.13 | 0.13 | 78 | 1017.1 |
| 20260904164007 | 12 | 262 | 11.3 | 20.9 | 0.00 | 0.13 | 0.13 | 79 | 1017.1 |
| 20260904163006 | 11 | 266 | 19.3 | 25.7 | 0.00 | 0.13 | 0.13 | 79 | 1016.9 |
| 20260904162006 | 12 | 276 | 8.0 | 22.5 | 0.00 | 0.13 | 0.13 | 79 | 1016.8 |
| 20260904161006 | 12 | 278 | 14.5 | 20.9 | 0.00 | 0.13 | 0.13 | 79 | 1016.8 |
| 20260904160006 | 11 | 278 | 12.9 | 22.5 | 0.00 | 0.13 | 0.13 | 79 | 1016.8 |
| 20260904155006 | 11 | 266 | 12.9 | 24.1 | 0.00 | 0.13 | 0.13 | 79 | 1016.7 |
| 20260904154006 | 12 | 249 | 6.4 | 25.7 | 0.00 | 0.13 | 0.13 | 79 | 1016.7 |
| 20260904153006 | 11 | 269 | 9.7 | 24.1 | 0.00 | 0.13 | 0.13 | 79 | 1016.6 |
| 20260904152006 | 11 | 270 | 9.7 | 27.4 | 0.00 | 0.13 | 0.13 | 79 | 1016.5 |
| 20260904151006 | 11 | 268 | 14.5 | 25.7 | 0.00 | 0.13 | 0.13 | 79 | 1016.4 |
| 20260904150007 | 11 | 266 | 22.5 | 30.6 | 0.00 | 0.13 | 0.13 | 79 | 1016.3 |
| 20260904145007 | 11 | 266 | 16.1 | 35.4 | 0.00 | 0.13 | 0.13 | 79 | 1016.3 |
| 20260904144007 | 12 | 270 | 14.5 | 29.0 | 0.00 | 0.13 | 0.13 | 79 | 1016.2 |
| 20260904143006 | 12 | 255 | 19.3 | 33.8 | 0.00 | 0.13 | 0.13 | 79 | 1016.1 |
| 20260904142006 | 11 | 260 | 24.1 | 37.0 | 0.00 | 0.13 | 0.13 | 79 | 1016.0 |